This demonstration page uses our WeatherBlox Daily Observations layout. Learn more.

Left ArrowRight Arrow

47.50024, -111.30081

Hourly Observations for March 25, 2017

Temp ( °F °C ) Dew Point ( °F °C ) Humidity (%) Winds ( mph kmh ) Pressure ( in mb ) Visibility ( mi km ) Precip ( " mm )
12:53 am 00:53 Clear 43 6.1 30 -1.1 60 60 SW 16 26 29.83 1010 10 16 0.00 0.00
1:53 am 01:53 Partly Cloudy 45 7.2 30 -1.1 56 56 SW 17 28 29.84 1010 10 16 0.00 0.00
2:53 am 02:53 Mostly Clear 44 6.7 29 -1.7 55 55 WSW 16 26 29.85 1011 10 16 0.00 0.00
3:53 am 03:53 Clear 43 6.1 30 -1.1 60 60 WSW 14 22 29.88 1012 10 16 0.00 0.00
4:53 am 04:53 Clear 42 5.6 27 -2.8 55 55 WSW 14 22 29.88 1012 10 16 0.00 0.00
5:53 am 05:53 Clear 40 4.4 25 -3.9 55 55 SW 14 22 29.91 1013 10 16 0.00 0.00
6:53 am 06:53 Clear 41 5 24 -4.4 51 51 SW 20 31 29.92 1013 10 16 0.00 0.00
7:53 am 07:53 Sunny 40 4.4 24 -4.4 53 53 SW 16 26 29.96 1015 10 16 0.00 0.00
8:53 am 08:53 Sunny 42 5.6 23 -5 47 47 SW 22 35 29.98 1015 10 16 0.00 0.00
9:53 am 09:53 Sunny 45 7.2 23 -5 42 42 SW 14 22 29.99 1016 10 16 0.00 0.00
10:53 am 10:53 Sunny 48 8.9 21 -6.1 34 34 SW 20 31 29.98 1015 10 16 0.00 0.00
11:53 am 11:53 Sunny 51 10.6 21 -6.1 31 31 WSW 20 31 29.96 1015 10 16 0.00 0.00
12:53 pm 12:53 Sunny 53 11.7 19 -7.2 26 26 WSW 14 22 29.96 1015 10 16 0.00 0.00
1:53 pm 13:53 Mostly Sunny 52 11.1 19 -7.2 27 27 WSW 12 19 29.93 1014 10 16 0.00 0.00
2:53 pm 14:53 Mostly Sunny 53 11.7 19 -7.2 26 26 SSW 12 19 29.91 1013 10 16 0.00 0.00
3:53 pm 15:53 Partly Cloudy 55 12.8 18 -7.8 23 23 WSW 16 26 29.90 1012 10 16 0.00 0.00
4:53 pm 16:53 Mostly Cloudy 52 11.1 17 -8.3 25 25 SW 8 13 29.91 1013 10 16 0.00 0.00
5:53 pm 17:53 Cloudy 52 11.1 19 -7.2 27 27 W 13 20 29.91 1013 10 16 0.00 0.00
6:53 pm 18:53 Mostly Sunny 50 10 18 -7.8 28 28 WSW 13 20 29.91 1013 10 16 0.00 0.00
7:53 pm 19:53 Mostly Cloudy 45 7.2 19 -7.2 35 35 W 9 15 29.94 1014 10 16 0.00 0.00
8:53 pm 20:53 Clear 35 1.7 20 -6.7 54 54 WSW 9 15 29.97 1015 10 16 0.00 0.00
9:53 pm 21:53 Clear 36 2.2 21 -6.1 55 55 W 10 17 29.98 1015 10 16 0.00 0.00
10:53 pm 22:53 Clear 34 1.1 22 -5.6 61 61 W 9 15 29.98 1015 10 16 0.00 0.00
11:53 pm 23:53 Clear 30 -1.1 22 -5.6 72 72 SSW 9 15 29.98 1015 10 16 0.00 0.00

Powered by AerisWeather